This demonstration page uses our WeatherBlox Daily Observations layout. Learn more.

Left ArrowRight Arrow

34.74481, -87.66753

Hourly Observations for June 6, 2019

Temp ( °F °C ) Dew Point ( °F °C ) Humidity (%) Winds ( mph kmh ) Pressure ( in mb ) Visibility ( mi km ) Precip ( " mm )
12:53 am 00:53 Clear 74 23.3 70 21.1 88 88 WSW 3 6 29.91 1013 10 16 0.00 0.00
1:53 am 01:53 Cloudy with Light Rain 74 23.3 70 21.1 88 88 Calm 29.89 1012 10 16 0.01 0.25
2:53 am 02:53 Cloudy 73 22.8 70 21.1 90 90 S 6 9 29.87 1011 10 16 0.00 0.03
3:53 am 03:53 Cloudy 72 22.2 68 20 87 87 S 8 13 29.87 1012 10 16 0.00 0.00
4:53 am 04:53 Cloudy with Light Rain 72 22.2 68 20 87 87 S 6 9 29.86 1011 10 16 0.01 0.25
5:53 am 05:53 Partly Cloudy 72 22.2 68 20 87 87 S 6 9 29.87 1011 10 16 0.00 0.03
6:53 am 06:53 Mostly Cloudy 72 22.2 68 20 87 87 S 6 9 29.88 1012 10 16 0.00 0.00
7:53 am 07:53 Cloudy 72 22.2 69 20.6 91 91 SSE 5 7 29.88 1012 10 16 0.00 0.00
8:53 am 08:53 Cloudy with Light Rain 74 23.3 69 20.6 85 85 S 7 11 29.89 1012 10 16 0.01 0.25
9:53 am 09:53 Cloudy with Rain 73 22.8 70 21.1 90 90 SSE 5 7 29.89 1012 10 16 0.11 2.79
10:22 am 10:22 Cloudy with Light Rain 73 22.8 70 21.1 90 90 SSE 6 9 29.88 1012 10 16 0.01 0.25
10:53 am 10:53 Cloudy with Light Rain 74 23.3 71 21.7 91 91 SE 6 9 29.89 1012 10 16 0.05 1.27
11:06 am 11:06 Cloudy with Light Rain 74 23.3 71 21.7 91 91 SE 7 11 29.88 1012 10 16 0.00 0.03
11:11 am 11:11 Cloudy 74 23.3 71 21.7 91 91 SE 6 9 29.88 1012 10 16 0.00 0.03
11:37 am 11:37 Cloudy 75 23.9 71 21.7 88 88 S 7 11 29.88 1012 10 16 0.00 0.03
11:53 am 11:53 Cloudy with Rain 75 23.9 71 21.7 88 88 S 6 9 29.88 1012 10 16 0.01 0.25
12:14 pm 12:14 Cloudy with Light Rain 75 23.9 71 21.7 88 88 S 9 15 29.88 1012 10 16 0.01 0.25
12:37 pm 12:37 Cloudy with Light Rain 75 23.9 71 21.7 88 88 SSW 9 15 29.87 1012 10 16 0.02 0.51
12:44 pm 12:44 Cloudy with Light Rain 75 23.9 71 21.7 88 88 SSW 7 11 29.87 1012 10 16 0.02 0.51
12:53 pm 12:53 Cloudy with Light Rain 75 23.9 71 21.7 88 88 SSW 9 15 29.87 1012 10 16 0.03 0.76
1:53 pm 13:53 Cloudy 75 23.9 71 21.7 88 88 SSE 5 7 29.85 1011 10 16 0.02 0.51
2:19 pm 14:19 Cloudy with Light Rain 75 23.9 71 21.7 88 88 SE 5 7 29.85 1011 10 16 0.01 0.25
2:34 pm 14:34 Cloudy with Light Rain 74 23.3 71 21.7 91 91 S 3 6 29.85 1011 10 16 0.05 1.27
2:53 pm 14:53 Cloudy with Rain 74 23.3 71 21.7 91 91 SE 9 15 29.84 1011 10 16 0.10 2.54
3:00 pm 15:00 Cloudy with Rain 74 23.3 71 21.7 91 91 SSE 8 13 29.84 1011 10 16 0.01 0.25
3:53 pm 15:53 Cloudy 73 22.8 70 21.1 90 90 E 5 7 29.82 1010 10 16 0.04 1.02
4:05 pm 16:05 Cloudy with Light Rain 74 23.3 71 21.7 91 91 E 5 7 29.82 1010 10 16 0.00 0.03
4:30 pm 16:30 Cloudy with Rain 74 23.3 71 21.7 91 91 E 5 7 29.81 1010 10 16 0.01 0.25
4:53 pm 16:53 Cloudy with Light Rain 74 23.3 71 21.7 91 91 VRB 3 6 29.81 1009 10 16 0.05 1.27
5:02 pm 17:02 Cloudy with Light Rain 74 23.3 71 21.7 91 91 ESE 6 9 29.80 1009 10 16 0.01 0.25
5:13 pm 17:13 Cloudy with Light Rain 74 23.3 71 21.7 91 91 E 6 9 29.80 1009 10 16 0.02 0.51
5:25 pm 17:25 Cloudy with Light Rain 74 23.3 71 21.7 91 91 ESE 6 9 29.80 1009 10 16 0.02 0.51
5:53 pm 17:53 Cloudy with Rain 74 23.3 71 21.7 91 91 ESE 5 7 29.79 1009 10 16 0.10 2.54
6:00 pm 18:00 Cloudy with Rain 74 23.3 72 22.2 94 94 SE 5 7 29.79 1009 10 16 0.01 0.25
6:07 pm 18:07 Cloudy with Heavy Rain 74 23.3 71 21.7 91 91 ESE 6 9 29.79 1009 10 16 0.05 1.27
6:38 pm 18:38 Cloudy 73 22.8 70 21.1 90 90 SE 6 9 29.79 1009 10 16 0.06 1.52
6:53 pm 18:53 Cloudy 73 22.8 70 21.1 90 90 ESE 5 7 29.79 1009 10 16 0.06 1.52
7:17 pm 19:17 Cloudy 73 22.8 70 21.1 90 90 E 6 9 29.78 1009 10 16 0.00 0.00
7:26 pm 19:26 Cloudy 73 22.8 70 21.1 90 90 E 6 9 29.78 1009 10 16 0.00 0.00
7:53 pm 19:53 Cloudy 73 22.8 70 21.1 90 90 E 5 7 29.78 1008 10 16 0.00 0.00
8:19 pm 20:19 Cloudy 73 22.8 70 21.1 90 90 E 7 11 29.77 1008 10 16 0.00 0.00
8:32 pm 20:32 Mostly Cloudy 73 22.8 70 21.1 90 90 ESE 9 15 29.76 1008 10 16 0.00 0.00
8:53 pm 20:53 Mostly Clear 72 22.2 70 21.1 94 94 undefined N/A 29.75 1007 10 16 0.00 0.00
9:20 pm 21:20 Mostly Clear 73 22.8 70 21.1 90 90 SE 9 15 29.75 1008 10 16 0.00 0.00
9:45 pm 21:45 Mostly Cloudy 73 22.8 70 21.1 90 90 E 6 9 29.76 1008 10 16 0.00 0.00
9:53 pm 21:53 Mostly Cloudy 73 22.8 70 21.1 90 90 E 7 11 29.76 1008 10 16 0.00 0.00
10:46 pm 22:46 Cloudy 73 22.8 70 21.1 90 90 E 5 7 29.75 1008 10 16 0.00 0.00
10:53 pm 22:53 Cloudy 73 22.8 70 21.1 90 90 ENE 7 11 29.75 1008 10 16 0.00 0.00
11:26 pm 23:26 Mostly Cloudy 73 22.8 70 21.1 90 90 E 6 9 29.75 1008 10 16 0.00 0.00
11:53 pm 23:53 Cloudy 73 22.8 70 21.1 90 90 ENE 7 11 29.74 1007 10 16 0.00 0.00

Powered by AerisWeather